METEOR-M2 3

Last updated on Fri Sep 11 2026 00:02:39 GMT+0000 (Coordinated Universal Time)

1 57166U 23091A 26253.53720775 -.00000008 00000+0 15297-4 0 9990 2 57166 98.6003 306.7339 0002807 286.4586 73.6284 14.24052254166664
UTC large
Height (km)
Speed (km/s)
/
Latitude / Longitude
Inclination (degrees)
Orbital Period (minutes)
Azimuth
Elevation
Range (km)
Doppler Factor

Next 0 passes for location: London (51.5072 / 0.1276)

No passes found over London.
METEOR-M2 3